| time (UTC) | temp F | wind direction | speed MPH | gust MPH | rain 1hr in | rain 24hr in | rain mn in | humidity % | barometer mb |
| 20260503011705 | 49 | 234 | 0.0 | 0.0 | 0.00 | 0.05 | 0.05 | 92 | 1009.1 |
| 20260503005204 | 49 | 234 | 0.0 | 0.0 | 0.00 | 0.05 | 0.05 | 91 | 1008.9 |
| 20260503004705 | 49 | 261 | 0.0 | 0.0 | 0.00 | 0.05 | 0.05 | 91 | 1008.8 |
| 20260503004204 | 49 | 234 | 0.0 | 0.0 | 0.00 | 0.05 | 0.05 | 91 | 1008.7 |
| 20260503002205 | 49 | 234 | 0.0 | 0.0 | 0.00 | 0.05 | 0.05 | 91 | 1008.8 |
| 20260503000206 | 50 | 304 | 0.0 | 0.0 | 0.00 | 0.05 | 0.05 | 90 | 1008.8 |
| 20260502234207 | 50 | 234 | 0.0 | 0.0 | 0.00 | 0.05 | 0.05 | 90 | 1008.7 |
| 20260502233705 | 50 | 234 | 0.0 | 0.0 | 0.00 | 0.05 | 0.05 | 90 | 1008.7 |
| 20260502232704 | 50 | 289 | 0.0 | 0.0 | 0.00 | 0.05 | 0.05 | 90 | 1008.6 |
| 20260502231704 | 50 | 234 | 0.0 | 1.0 | 0.01 | 0.05 | 0.05 | 90 | 1008.6 |
| 20260502231204 | 50 | 234 | 0.0 | 0.0 | 0.01 | 0.05 | 0.05 | 89 | 1008.7 |
| 20260502230205 | 50 | 234 | 0.0 | 0.0 | 0.01 | 0.05 | 0.05 | 89 | 1008.7 |
| 20260502225704 | 50 | 234 | 0.0 | 0.0 | 0.01 | 0.05 | 0.05 | 89 | 1008.7 |
| 20260502224704 | 50 | 308 | 0.0 | 0.0 | 0.01 | 0.05 | 0.05 | 89 | 1008.5 |
| 20260502224205 | 50 | 234 | 0.0 | 0.0 | 0.01 | 0.05 | 0.05 | 88 | 1008.4 |
| 20260502223204 | 50 | 234 | 0.0 | 1.0 | 0.01 | 0.05 | 0.05 | 88 | 1008.4 |
| 20260502222704 | 51 | 234 | 0.0 | 0.0 | 0.01 | 0.05 | 0.05 | 88 | 1008.6 |
| 20260502222206 | 51 | 237 | 0.0 | 0.0 | 0.01 | 0.05 | 0.05 | 87 | 1008.7 |
| 20260502221705 | 51 | 234 | 0.0 | 0.0 | 0.00 | 0.04 | 0.04 | 87 | 1008.6 |
| 20260502221204 | 51 | 259 | 0.0 | 0.0 | 0.00 | 0.04 | 0.04 | 86 | 1008.7 |
| 20260502220704 | 51 | 0 | 0.0 | 1.0 | 0.00 | 0.04 | 0.04 | 86 | 1008.9 |
| 20260502215204 | 52 | 0 | 1.0 | 2.0 | 0.00 | 0.04 | 0.04 | 84 | 1008.9 |
| 20260502214704 | 52 | 0 | 1.0 | 2.0 | 0.00 | 0.04 | 0.04 | 83 | 1008.8 |
| 20260502214204 | 53 | 0 | 1.0 | 3.0 | 0.00 | 0.04 | 0.04 | 82 | 1008.8 |
| 20260502212704 | 54 | 0 | 2.0 | 3.0 | 0.00 | 0.04 | 0.04 | 79 | 1008.8 |
| 20260502212204 | 54 | 357 | 3.0 | 6.0 | 0.00 | 0.04 | 0.04 | 78 | 1008.7 |
| 20260502210705 | 55 | 201 | 1.0 | 2.0 | 0.00 | 0.04 | 0.04 | 78 | 1008.5 |
| 20260502204204 | 55 | 202 | 2.0 | 9.0 | 0.00 | 0.04 | 0.04 | 75 | 1008.3 |
| 20260502203704 | 55 | 193 | 2.0 | 5.0 | 0.00 | 0.04 | 0.04 | 76 | 1008.4 |
| 20260502203204 | 55 | 194 | 1.0 | 7.0 | 0.00 | 0.04 | 0.04 | 76 | 1008.3 |
| 20260502202704 | 55 | 195 | 1.0 | 3.0 | 0.00 | 0.04 | 0.04 | 75 | 1008.4 |
| 20260502202204 | 56 | 195 | 2.0 | 5.0 | 0.00 | 0.04 | 0.04 | 74 | 1008.5 |
| 20260502201705 | 56 | 194 | 2.0 | 5.0 | 0.00 | 0.04 | 0.04 | 73 | 1008.4 |
| 20260502200705 | 57 | 214 | 2.0 | 8.0 | 0.00 | 0.04 | 0.04 | 72 | 1008.6 |
| 20260502194205 | 56 | 192 | 3.0 | 10.0 | 0.00 | 0.04 | 0.04 | 74 | 1008.7 |
| 20260502193704 | 56 | 355 | 3.0 | 3.0 | 0.00 | 0.04 | 0.04 | 74 | 1008.8 |
| 20260502192705 | 56 | 187 | 2.0 | 6.0 | 0.00 | 0.04 | 0.04 | 76 | 1009.0 |
| 20260502192204 | 55 | 188 | 1.0 | 3.0 | 0.00 | 0.04 | 0.04 | 76 | 1009.0 |
| 20260502190706 | 54 | 180 | 3.0 | 10.0 | 0.01 | 0.04 | 0.04 | 76 | 1009.1 |
| 20260502185704 | 55 | 192 | 1.0 | 3.0 | 0.01 | 0.04 | 0.04 | 81 | 1009.2 |
| 20260502185204 | 54 | 192 | 2.0 | 5.0 | 0.01 | 0.04 | 0.04 | 82 | 1009.2 |
| 20260502181704 | 51 | 191 | 2.0 | 3.0 | 0.02 | 0.04 | 0.04 | 88 | 1009.3 |
| 20260502181206 | 51 | 192 | 2.0 | 6.0 | 0.03 | 0.04 | 0.04 | 88 | 1009.4 |
| 20260502180704 | 51 | 196 | 1.0 | 3.0 | 0.02 | 0.03 | 0.03 | 88 | 1009.4 |
| 20260502162704 | 54 | 194 | 3.0 | 6.0 | 0.00 | 0.01 | 0.01 | 70 | 1009.8 |
| 20260502161704 | 54 | 236 | 2.0 | 6.0 | 0.00 | 0.01 | 0.01 | 74 | 1009.8 |
| 20260502160204 | 54 | 257 | 3.0 | 7.0 | 0.00 | 0.01 | 0.01 | 77 | 1010.0 |
| 20260502152204 | 54 | 278 | 0.0 | 3.0 | 0.00 | 0.01 | 0.01 | 81 | 1010.0 |
| 20260502151205 | 54 | 277 | 1.0 | 3.0 | 0.00 | 0.01 | 0.01 | 81 | 1010.4 |
| 20260502150204 | 54 | 277 | 1.0 | 2.0 | 0.00 | 0.01 | 0.01 | 82 | 1010.2 |
| 20260502122705 | 50 | 279 | 1.0 | 7.0 | 0.00 | 0.00 | 0.00 | 84 | 1011.4 |
| 20260502121705 | 50 | 277 | 1.0 | 6.0 | 0.00 | 0.00 | 0.00 | 85 | 1011.3 |
| 20260502121204 | 50 | 276 | 1.0 | 6.0 | 0.00 | 0.00 | 0.00 | 85 | 1010.9 |
| 20260502120705 | 50 | 276 | 2.0 | 3.0 | 0.00 | 0.00 | 0.00 | 85 | 1010.7 |
| 20260502115704 | 49 | 276 | 1.0 | 2.0 | 0.00 | 0.00 | 0.00 | 85 | 1010.6 |
| 20260502113705 | 49 | 352 | 1.0 | 2.0 | 0.00 | 0.01 | 0.00 | 85 | 1010.3 |
| 20260502113204 | 48 | 272 | 2.0 | 3.0 | 0.00 | 0.01 | 0.00 | 85 | 1010.5 |
| 20260502112706 | 48 | 272 | 1.0 | 2.0 | 0.00 | 0.01 | 0.00 | 86 | 1010.4 |
| 20260502112204 | 48 | 272 | 0.0 | 3.0 | 0.00 | 0.01 | 0.00 | 86 | 1010.5 |
| 20260502104704 | 48 | 272 | 1.0 | 2.0 | 0.00 | 0.01 | 0.00 | 85 | 1010.3 |
| 20260502104204 | 48 | 272 | 1.0 | 2.0 | 0.00 | 0.01 | 0.00 | 85 | 1010.3 |
| 20260502103705 | 48 | 272 | 0.0 | 1.0 | 0.00 | 0.01 | 0.00 | 85 | 1010.2 |
| 20260502103204 | 48 | 272 | 1.0 | 2.0 | 0.00 | 0.01 | 0.00 | 86 | 1010.2 |
| 20260502102705 | 48 | 272 | 1.0 | 3.0 | 0.00 | 0.01 | 0.00 | 86 | 1010.3 |
| 20260502102204 | 48 | 272 | 2.0 | 3.0 | 0.00 | 0.01 | 0.00 | 86 | 1010.2 |
| 20260502101204 | 48 | 271 | 0.0 | 1.0 | 0.00 | 0.01 | 0.00 | 86 | 1010.0 |
| 20260502091205 | 48 | 340 | 1.0 | 2.0 | 0.00 | 0.01 | 0.00 | 84 | 1009.8 |
| 20260502090204 | 48 | 356 | 1.0 | 2.0 | 0.00 | 0.01 | 0.00 | 84 | 1009.9 |
| 20260502071204 | 49 | 272 | 1.0 | 2.0 | 0.00 | 0.01 | 0.00 | 77 | 1009.9 |
| 20260502070704 | 49 | 272 | 1.0 | 1.0 | 0.00 | 0.01 | 0.00 | 77 | 1009.9 |
| 20260502070204 | 49 | 272 | 0.0 | 1.0 | 0.00 | 0.01 | 0.00 | 76 | 1009.9 |
| 20260502063204 | 49 | 272 | 1.0 | 2.0 | 0.00 | 0.01 | 0.00 | 75 | 1010.1 |
| 20260502062204 | 49 | 272 | 1.0 | 3.0 | 0.00 | 0.01 | 0.00 | 75 | 1010.0 |
| 20260502061204 | 49 | 272 | 1.0 | 3.0 | 0.00 | 0.01 | 0.00 | 74 | 1009.9 |
| 20260502055706 | 49 | 272 | 1.0 | 2.0 | 0.00 | 0.01 | 0.00 | 74 | 1009.9 |
| 20260502054204 | 49 | 272 | 1.0 | 3.0 | 0.00 | 0.01 | 0.00 | 73 | 1010.0 |
| 20260502053204 | 49 | 272 | 1.0 | 3.0 | 0.00 | 0.01 | 0.00 | 72 | 1010.1 |
| 20260502051704 | 50 | 354 | 1.0 | 2.0 | 0.00 | 0.01 | 0.00 | 71 | 1010.0 |
| 20260502050705 | 50 | 284 | 1.0 | 3.0 | 0.00 | 0.01 | 0.00 | 70 | 1010.1 |
| 20260502050205 | 50 | 272 | 1.0 | 3.0 | 0.00 | 0.01 | 0.00 | 70 | 1010.1 |
| 20260502045205 | 50 | 273 | 1.0 | 2.0 | 0.00 | 0.01 | 0.00 | 69 | 1010.1 |
| 20260502035204 | 51 | 272 | 1.0 | 3.0 | 0.00 | 0.01 | 0.01 | 66 | 1010.1 |
| 20260502034704 | 51 | 0 | 2.0 | 3.0 | 0.00 | 0.01 | 0.01 | 65 | 1010.2 |
| 20260502033707 | 51 | 0 | 1.0 | 3.0 | 0.00 | 0.01 | 0.01 | 65 | 1010.3 |
| 20260502032704 | 50 | 273 | 1.0 | 2.0 | 0.00 | 0.01 | 0.01 | 65 | 1010.4 |
| 20260502032204 | 50 | 274 | 1.0 | 2.0 | 0.00 | 0.01 | 0.01 | 65 | 1010.3 |
| 20260502031207 | 50 | 273 | 1.0 | 3.0 | 0.00 | 0.01 | 0.01 | 64 | 1010.2 |
| 20260502030704 | 50 | 274 | 1.0 | 2.0 | 0.00 | 0.01 | 0.01 | 64 | 1010.2 |
| 20260502030205 | 50 | 273 | 1.0 | 2.0 | 0.00 | 0.01 | 0.01 | 64 | 1010.1 |
| 20260502025205 | 50 | 352 | 1.0 | 3.0 | 0.00 | 0.01 | 0.01 | 65 | 1010.1 |
| 20260502024204 | 49 | 295 | 1.0 | 2.0 | 0.00 | 0.01 | 0.01 | 66 | 1010.2 |
| 20260502023704 | 48 | 273 | 1.0 | 3.0 | 0.00 | 0.01 | 0.01 | 68 | 1010.2 |
| 20260502022704 | 47 | 345 | 2.0 | 3.0 | 0.00 | 0.01 | 0.01 | 72 | 1010.2 |
| 20260502022204 | 47 | 276 | 1.0 | 3.0 | 0.00 | 0.01 | 0.01 | 72 | 1010.2 |
| 20260502020704 | 48 | 275 | 0.0 | 1.0 | 0.00 | 0.01 | 0.01 | 70 | 1009.9 |
| 20260502015204 | 49 | 334 | 0.0 | 0.0 | 0.00 | 0.01 | 0.01 | 67 | 1009.8 |
| 20260502014704 | 49 | 302 | 0.0 | 1.0 | 0.00 | 0.01 | 0.01 | 67 | 1009.8 |
| 20260502014205 | 49 | 275 | 0.0 | 1.0 | 0.00 | 0.01 | 0.01 | 65 | 1009.8 |
| 20260502013704 | 49 | 348 | 0.0 | 1.0 | 0.00 | 0.01 | 0.01 | 65 | 1009.9 |
| 20260502013204 | 50 | 320 | 0.0 | 0.0 | 0.00 | 0.01 | 0.01 | 64 | 1009.8 |